Weather in Istisu / Dzhermatchyur

Azerbaijan     39°56′57″N   45°57′43″E
temp.,
°C
wind,
m/s
gust,
m/s
humid.,
%
clouds,
%
prec.,
mm/h
press.,
hPa
HPBL,
m
6 may, thu
thu601:000wsw0110099 2.1 101676
04:000s119976 2.1 101639
07:00−1ssw219630 0.0 101738
10:00+2ssw1299100 0.0 1016318
13:00+4wsw119756 0.2 1015238
16:00+6nw028434 0.6 1014478
19:00+5e129412 0.1 1014101
22:00+2ssw328339 0.1 101622
7 may, fri
fri701:00+2ssw3280100 0.0 101615
04:00+2ssw2276100 0.0 101512
07:00+4sse1179100 0.0 101522
10:00+5e2184100 0.4 1015488
13:00+4ene2196100 2.8 1016644
16:00+4ne1198100 6.9 1017490
19:00+3e1198100 1.6 1018421
22:00+3ese119995 1.6 1020152
8 may, sat
sat801:00+1ssw119692 0.0 102131
04:00+1sw229218 0.0 102118
07:00+2sw22855 0.0 102038
10:00+7e227010 0.0 1018808
13:00+11ene226158 0.0 10171398
16:00+12ne326246 0.1 10151163
19:00+9ene118437 0.1 1017202
22:00+5ssw228924 0.3 101917
9 may, sun
sun901:00+5sw43721 0.0 101725
04:00+4sw54660 0.0 101633
07:00+6sw556898 0.0 101657
10:00+13wsw36514 0.0 10131545
13:00+14w574995 0.1 10112329
16:00+14w5848100 0.4 10102493
19:00+10ssw117199 1.6 101126
22:00+4w2295100 11.4 1016137
10 may, mon
mon1001:00+4ssw3486100 4.6 101478
04:00+4s3486100 4.8 101389
07:00+5sse249396 1.3 1013215
10:00+7se379385 2.0 1011724
13:00+4ne3298100 1.6 1013305
16:00+2ne21100100 5.1 1015178
19:00+2ne2399100 0.6 1016237
22:00+1ene22100100 0.8 1018109